Location: Enborne
(51.3833°N, 1.3667°W)
Time: 12:17:36
(UTC+00:00)

ERS-1 Rocket - Pass Details

Date: 18 September 2020
Orbit: 753 x 757 km, 98.5° (Epoch: 23 October)

Event Time Altitude Azimuth Distance (km) Brightness Sun altitude
Exits shadow 20:57:23 46° 57° (ENE) 1,014 3.4 -24.7°
Drops below altitude 10° 21:01:57 10° 355° (N) 2,297 6.0 -25.3°
Sets 21:04:19 0° 349° (N) 3,227 7.0 -25.5°
